SCP
0 0 0 0 0 0 0 -0 0 0 0 0 0 0 0 0 -0 -0 -0 -0 0 -0 0 0 0 0 0 0 0 -0 -0 0 0 0 0 0 0 0 0 -0 -0 0 -0
0 0 0 0 0 0 0 0 0 0 0 0 0 0 0 0 -0 -0 -0 -0 -0 -0 0 -0 -0 0 0 0 0 -0 0 -0 -0 0 0 0 0 0 0 0 0 0 -0
0 0 0 0 0 0 0 0 0 0 0 0 0 0 0 0 0 0 -0 -0 -0 -0 -0 -0 -0 0 0 0 0 0 0 0 0 0 0 -0 -0 0 0 0 0 -0 -0
0 0 0 0 0 0 0 0 0 0 0 0 0 0 0 0 0 0 0 0 0 0 -0 -0 -0 0 0 0 0 0 0 0 0 0 0 -0 0 0 -0 -0 -0 -0 -0
0 0 0 0 0 0 0 0 0 0 0 0 0 0 0 0 0 0 0 0 0 0 0 0 0 0 0 0 0 0 0 0 -0 0 0 0 0 0 -0 -0 -0 -0 -0
0 0 0 0 0 0 0 0 0 0 0 0 0 0 0 0 0 0 0 0 0 0 0 0 0 0 0 0 0 0 0 0 0 0 0 0 0 0 0 0 0 -0 -0
-0 0 0 0 0 0 0 0 0 0 0 0 0 0 0 0 0 0 0 0 0 0 0 0 0 0 0 0 0 0 0 0 0 0 0 0 0 0 0 0 0 0 0
0 0 0 0 0 0 0 0 -0 -0 0 0 0 0 0 0 0 0 0 0 0 0 0 0 0 0 0 0 0 0 0 0 0 0 0 0 0 0 0 0 0 0 0
0 0 0 0 0 0 0 0 0 0 0 0 0 0 0 0 0 0 0 0 0 0 0 0 0 0 0 0 0 0 0 0 0 0 0 0 0 0 0 0 0 0 0
0 0 0 0 0 0 0 0 0 0 0 0 0 0 0 0 0 0 0 0 0 0 0 0 0 0 0 0 0 0 0 0 0 0 0 0 0 0 0 0 0 0 0
0 0 0 0 0 0 0 0 0 0 0 0 0 0 0 0 0 0 0 0 0 0 0 0 0 0 0 0 0 0 0 0 0 0 0 0 0 0 0 0 0 0 0
0 0 0 0 0 0 0 0 0 0 0 0 0 0 0 0 0 0 0 0 0 0 0 0 0 0 0 0 0 0 0 0 0 0 0 0 0 0 0 0 0 0 0
0 0 0 0 0 0 0 0 0 0 0 0 0 0 0 0 0 0 0 0 0 0 0 0 0 0 0 0 0 0 0 0 0 0 0 0 0 0 0 0 0 0 0
0 0 0 0 0 0 0 0 0 0 0 0 0 0 0 0 0 0 0 0 0 0 0 0 0 0 0 0 0 0 0 0 0 0 0 0 0 0 0 0 0 0 0
0 0 0 0 0 0 0 0 0 0 0 0 0 0 0 0 0 0 0 0 0 0 0 0 0 0 0 0 0 0 0 0 0 0 0 0 0 1 0 0 0 0 0
0 0 0 0 0 0 0 0 0 0 0 0 0 0 0 0 0 0 0 0 0 0 0 0 0 0 0 0 0 0 0 0 0 0 0 0 0 1 1 0 0 0 0
0 0 0 0 0 0 0 0 0 0 0 0 0 0 0 0 0 0 0 0 0 0 0 0 0 0 0 0 0 0 0 0 0 0 0 0 0 1 1 1 0 0 0
0 0 0 0 0 0 0 0 0 0 0 0 0 0 0 0 0 0 0 0 0 0 0 0 0 0 0 0 0 0 0 0 0 0 0 0 0 0 1 1 1 0 0
0 0 0 0 0 0 0 0 0 0 0 0 0 0 0 0 0 0 0 0 0 0 0 0 0 0 0 0 0 0 0 0 0 0 0 0 0 0 0 0 1 0 0
0 0 0 0 0 0 0 0 0 0 0 0 0 0 0 0 0 0 0 0 0 0 0 0 0 0 0 0 0 0 0 0 0 0 0 0 0 0 0 0 0 0 0
0 0 0 0 0 0 0 0 0 0 0 0 0 0 0 0 0 0 0 0 0 0 0 0 0 0 0 0 0 0 0 0 0 0 0 0 0 0 0 0 0 0 0
0 0 0 0 0 0 0 0 0 0 0 0 0 0 0 0 0 0 0 0 0 0 0 0 0 0 0 0 0 0 0 0 0 0 0 0 0 0 0 0 0 0 0
0 0 0 0 0 0 0 0 0 0 0 0 0 0 0 0 0 0 0 0 0 0 0 0 0 0 0 0 0 0 0 0 0 0 0 0 0 0 0 0 0 0 0
0 0 0 0 0 0 0 0 0 0 0 0 0 0 0 0 0 0 0 0 0 0 0 0 0 0 0 0 0 0 0 0 0 0 0 0 0 0 0 0 0 0 0
0 0 0 0 0 0 0 0 0 0 0 0 0 0 0 0 0 0 0 0 0 0 0 0 0 0 0 0 0 0 0 0 0 0 0 0 0 0 0 0 0 0 0
0 0 0 0 0 0 0 0 0 0 0 0 0 0 0 0 0 0 0 0 0 0 0 0 0 0 0 0 0 0 0 0 0 0 0 0 0 0 0 0 0 0 0
Wind_Speed_500mb
3 13 14 11 10 8 7 10 10 11 12 14 14 16 15 16 15 16 17 19 19 17 18 19 22 22 21 23 24 22 22 23 23 26 29 27 27 29 29 30 29 28 24
3 13 14 11 9 11 7 5 7 8 11 12 12 14 14 13 13 11 14 13 17 19 19 17 19 20 18 19 19 20 22 23 21 23 27 26 23 25 28 30 30 29 29
12 11 10 9 10 8 6 1 4 8 10 13 13 10 10 12 13 13 11 10 8 14 15 18 18 19 19 18 17 18 17 16 16 19 21 21 20 18 24 27 29 29 29
18 15 8 4 7 10 6 3 1 4 7 12 14 13 10 8 8 9 8 8 8 10 11 11 12 13 17 16 15 16 15 17 16 14 15 17 16 14 17 20 22 24 24
15 13 11 5 1 3 3 3 3 4 7 10 13 15 13 11 8 8 7 6 5 5 9 8 8 8 9 14 15 15 12 9 10 9 11 14 9 11 10 15 18 20 22
16 18 22 20 14 10 8 6 7 7 6 9 12 14 15 14 12 11 10 8 6 3 4 7 6 7 7 11 16 17 13 8 9 4 4 7 9 8 10 9 11 13 15
14 20 19 17 16 12 10 11 10 8 5 7 8 10 12 13 13 12 12 12 11 9 4 4 7 8 8 8 13 19 16 10 6 3 9 16 14 13 15 10 5 6 8
12 7 7 11 13 16 20 21 20 22 18 11 7 8 8 8 10 11 11 11 11 11 10 7 7 11 10 10 11 19 20 15 11 13 14 15 15 13 17 12 8 3 5
9 3 0 3 6 4 7 11 16 17 18 18 21 19 15 5 4 10 14 12 13 14 13 12 10 7 9 11 14 16 19 19 17 16 15 14 18 18 19 10 6 4 7
16 14 12 9 8 7 6 7 8 7 9 9 9 11 10 13 8 9 16 18 17 18 17 15 14 12 10 11 13 16 20 23 23 21 18 18 25 23 17 12 8 6 9
22 17 9 6 13 10 5 9 3 2 5 8 12 15 11 9 10 7 12 15 17 20 24 21 19 17 15 15 15 17 19 18 30 32 28 24 24 23 18 21 16 11 10
14 8 8 9 10 8 8 7 7 9 13 15 16 16 16 13 12 13 10 12 14 13 18 20 22 21 19 17 20 22 22 19 18 34 40 35 31 32 29 26 24 23 18
18 16 10 13 16 11 8 4 6 12 14 17 15 13 21 22 22 19 18 22 20 18 16 20 18 17 20 21 20 22 24 25 23 19 32 34 35 40 40 37 35 29 27
6 11 15 9 5 6 4 4 6 6 8 8 14 19 18 24 20 21 22 21 22 18 23 29 28 28 28 26 25 25 29 31 31 28 27 28 32 33 36 36 30 31 32
4 7 6 4 8 11 10 12 12 13 13 14 12 13 15 17 20 32 33 28 30 36 34 37 35 36 40 37 37 37 32 31 33 37 36 38 36 39 41 40 35 33 34
8 8 6 6 9 8 12 14 16 16 17 17 20 23 25 25 24 23 24 25 27 29 33 38 41 44 42 44 46 46 45 42 36 36 46 44 49 48 47 47 46 40 38
10 9 7 4 5 8 13 16 17 19 20 22 24 27 30 33 33 34 34 33 31 32 35 36 36 38 52 54 57 54 51 48 48 44 44 48 53 50 50 53 54 50 43
11 8 5 4 7 11 14 18 19 20 23 24 27 32 34 32 34 34 36 38 39 37 36 38 41 43 42 42 44 52 62 59 58 55 54 51 50 54 54 54 57 56 52
6 5 5 3 7 14 17 20 17 18 25 31 34 36 36 35 34 37 42 46 45 42 42 44 43 44 47 47 48 47 48 56 66 68 62 63 61 59 59 61 60 58 55
14 13 10 10 14 18 19 23 22 24 32 42 45 43 41 39 40 41 44 43 43 45 45 45 47 44 45 50 54 58 55 53 55 63 64 69 67 64 63 62 63 62 58
21 18 18 19 20 25 25 29 34 38 43 49 50 49 49 48 48 46 45 45 45 49 52 47 51 55 56 52 58 63 64 63 54 52 60 60 64 63 67 66 67 65 61
25 23 23 24 25 30 31 34 38 44 49 54 55 55 53 53 54 53 52 51 51 50 48 49 47 52 56 53 58 56 49 56 42 15 23 31 53 64 64 59 70 69 63
25 24 25 25 29 33 34 38 42 44 52 59 61 62 60 60 61 60 60 58 56 51 52 48 50 52 57 54 52 50 39 25 50 64 57 42 36 31 45 62 60 69 70
28 31 30 29 33 37 38 44 45 51 58 63 65 68 67 67 68 67 66 65 64 61 62 54 55 59 60 60 50 56 60 64 69 68 64 66 55 53 45 37 45 64 73
36 36 31 31 37 36 44 46 47 49 58 62 65 69 71 74 74 74 72 69 66 60 55 58 61 57 53 63 61 54 59 70 70 71 68 63 64 66 61 51 48 37 52
40 36 34 38 37 42 44 41 44 56 60 63 67 73 78 79 79 77 75 71 67 63 62 61 60 64 67 68 71 72 69 61 70 68 70 73 70 70 65 60 56 50 53
Wind_Direction_500mb
229 169 158 161 154 123 99 103 83 66 53 53 65 80 96 100 81 80 79 72 71 79 90 82 85 88 96 103 106 99 95 87 81 74 65 57 59 63 66 64 62 62 61
205 159 157 163 158 117 126 73 58 66 59 57 71 87 91 101 97 85 79 81 75 81 78 87 100 88 98 105 107 105 97 85 82 74 62 51 49 56 62 60 55 51 48
99 131 145 150 151 155 198 191 69 74 80 65 60 73 86 91 92 101 87 90 92 93 89 98 104 102 95 105 115 112 100 81 78 69 58 42 42 51 60 54 51 49 46
84 88 82 109 151 166 217 151 68 103 79 58 50 56 61 77 83 84 110 113 97 113 115 110 112 109 106 110 125 123 105 86 70 62 28 23 26 37 49 54 57 54 54
53 33 15 24 354 296 344 42 28 36 51 47 43 45 44 42 43 42 55 77 67 129 146 142 140 139 117 121 140 134 115 102 81 64 28 8 23 8 28 38 52 53 54
50 48 57 49 31 9 6 18 19 34 34 43 41 40 38 35 32 31 31 27 17 25 175 189 184 174 159 141 157 158 150 118 92 85 221 340 3 360 359 29 51 58 63
62 67 72 69 53 39 31 34 29 25 61 32 30 31 33 30 26 22 20 19 17 15 351 260 238 222 208 177 170 181 178 173 137 244 264 323 311 297 297 305 342 35 72
74 84 91 83 79 74 84 76 56 52 55 42 32 32 23 26 23 14 12 9 10 7 3 339 293 259 235 212 192 192 198 199 216 213 261 301 317 323 329 281 285 301 138
136 234 163 30 33 55 75 57 50 61 49 58 74 62 43 35 51 36 24 20 6 352 344 340 333 299 257 237 219 206 209 216 240 242 232 279 297 307 326 306 268 225 187
141 150 179 145 77 32 338 331 20 44 43 60 52 37 33 53 43 40 28 13 349 341 334 325 322 317 293 262 247 233 218 219 224 245 243 272 281 292 301 307 271 210 200
125 136 159 150 122 154 191 222 250 330 325 329 340 349 326 341 322 335 22 23 14 5 358 340 320 304 294 282 266 255 243 239 223 230 243 255 270 269 275 295 273 249 212
99 113 112 139 167 164 182 206 256 283 299 311 320 330 329 331 331 308 304 320 321 327 344 346 341 313 300 287 275 265 256 247 242 231 233 250 259 263 271 284 279 259 241
89 82 79 105 130 159 176 205 261 273 276 285 286 292 296 295 294 292 299 297 293 289 294 304 312 311 299 295 291 281 271 268 259 245 239 248 256 264 273 283 274 267 251
137 88 74 56 42 69 76 61 54 338 322 314 290 303 288 283 283 277 281 278 274 287 279 280 290 293 291 285 281 286 285 280 265 255 252 257 258 265 267 278 280 264 255
164 143 93 58 67 75 75 69 63 51 42 32 7 348 341 327 310 285 285 290 280 280 278 275 276 275 280 283 284 278 274 282 284 261 253 255 260 262 264 274 278 276 261
156 154 122 82 71 58 55 46 34 22 16 0 355 353 345 336 328 322 318 314 308 300 289 280 273 268 266 268 270 271 271 267 262 261 255 259 256 257 262 265 277 279 270
159 165 169 131 82 36 20 11 5 356 349 346 345 342 338 332 330 328 324 319 314 307 296 290 287 282 273 271 266 261 261 263 263 257 255 260 260 258 255 261 269 277 274
163 171 155 86 39 24 15 4 355 352 354 353 346 338 338 333 328 326 326 326 325 321 315 307 301 294 288 284 279 266 256 256 257 260 258 256 260 260 257 257 264 273 274
181 245 266 327 3 4 2 359 355 355 352 348 343 338 335 329 325 322 321 321 321 321 319 316 311 311 305 300 293 284 277 266 259 254 254 256 255 256 260 260 262 267 270
222 242 270 307 336 343 344 353 355 348 346 347 343 339 336 329 326 319 317 315 314 313 314 318 312 311 308 308 305 300 292 281 273 261 258 254 255 253 254 258 259 261 264
222 245 274 297 313 323 325 335 340 343 343 340 338 336 334 332 331 325 320 314 311 309 307 307 310 307 304 308 308 306 301 295 284 272 265 261 256 253 252 249 254 259 260
222 237 268 289 299 310 315 325 331 334 333 334 336 334 333 331 330 327 324 320 315 312 300 295 297 299 299 302 304 306 312 305 307 259 257 268 258 254 251 254 250 253 258
226 238 262 266 284 303 309 312 316 322 325 331 331 331 330 328 325 322 320 317 314 307 304 304 304 292 296 292 291 286 290 280 297 292 286 273 270 274 259 254 250 247 254
223 234 249 266 287 300 305 307 315 323 324 325 327 327 325 323 321 317 315 311 306 301 299 291 290 289 294 296 289 283 276 278 283 289 289 288 277 276 271 269 263 250 245
225 235 249 271 289 294 302 306 315 313 315 317 319 320 319 318 316 314 312 310 307 306 298 285 286 284 285 288 287 290 282 277 275 276 283 287 284 281 282 278 272 272 257
223 238 260 281 288 298 305 311 307 309 313 313 315 315 316 315 315 313 312 309 307 303 299 296 290 281 279 281 282 283 281 282 273 270 272 279 282 283 278 277 279 270 263
Wind_Speed_850mb
3 13 14 11 10 8 7 10 10 11 12 14 14 16 15 16 15 16 17 19 19 17 18 19 22 22 21 23 24 22 22 23 23 26 29 27 27 29 29 30 29 28 24
3 13 14 11 9 11 7 5 7 8 11 12 12 14 14 13 13 11 14 13 17 19 19 17 19 20 18 19 19 20 22 23 21 23 27 26 23 25 28 30 30 29 29
12 11 10 9 10 8 6 1 4 8 10 13 13 10 10 12 13 13 11 10 8 14 15 18 18 19 19 18 17 18 17 16 16 19 21 21 20 18 24 27 29 29 29
18 15 8 4 7 10 6 3 1 4 7 12 14 13 10 8 8 9 8 8 8 10 11 11 12 13 17 16 15 16 15 17 16 14 15 17 16 14 17 20 22 24 24
15 13 11 5 1 3 3 3 3 4 7 10 13 15 13 11 8 8 7 6 5 5 9 8 8 8 9 14 15 15 12 9 10 9 11 14 9 11 10 15 18 20 22
16 18 22 20 14 10 8 6 7 7 6 9 12 14 15 14 12 11 10 8 6 3 4 7 6 7 7 11 16 17 13 8 9 4 4 7 9 8 10 9 11 13 15
14 20 19 17 16 12 10 11 10 8 5 7 8 10 12 13 13 12 12 12 11 9 4 4 7 8 8 8 13 19 16 10 6 3 9 16 14 13 15 10 5 6 8
12 7 7 11 13 16 20 21 20 22 18 11 7 8 8 8 10 11 11 11 11 11 10 7 7 11 10 10 11 19 20 15 11 13 14 15 15 13 17 12 8 3 5
9 3 0 3 6 4 7 11 16 17 18 18 21 19 15 5 4 10 14 12 13 14 13 12 10 7 9 11 14 16 19 19 17 16 15 14 18 18 19 10 6 4 7
16 14 12 9 8 7 6 7 8 7 9 9 9 11 10 13 8 9 16 18 17 18 17 15 14 12 10 11 13 16 20 23 23 21 18 18 25 23 17 12 8 6 9
22 17 9 6 13 10 5 9 3 2 5 8 12 15 11 9 10 7 12 15 17 20 24 21 19 17 15 15 15 17 19 18 30 32 28 24 24 23 18 21 16 11 10
14 8 8 9 10 8 8 7 7 9 13 15 16 16 16 13 12 13 10 12 14 13 18 20 22 21 19 17 20 22 22 19 18 34 40 35 31 32 29 26 24 23 18
18 16 10 13 16 11 8 4 6 12 14 17 15 13 21 22 22 19 18 22 20 18 16 20 18 17 20 21 20 22 24 25 23 19 32 34 35 40 40 37 35 29 27
6 11 15 9 5 6 4 4 6 6 8 8 14 19 18 24 20 21 22 21 22 18 23 29 28 28 28 26 25 25 29 31 31 28 27 28 32 33 36 36 30 31 32
4 7 6 4 8 11 10 12 12 13 13 14 12 13 15 17 20 32 33 28 30 36 34 37 35 36 40 37 37 37 32 31 33 37 36 38 36 39 41 40 35 33 34
8 8 6 6 9 8 12 14 16 16 17 17 20 23 25 25 24 23 24 25 27 29 33 38 41 44 42 44 46 46 45 42 36 36 46 44 49 48 47 47 46 40 38
10 9 7 4 5 8 13 16 17 19 20 22 24 27 30 33 33 34 34 33 31 32 35 36 36 38 52 54 57 54 51 48 48 44 44 48 53 50 50 53 54 50 43
11 8 5 4 7 11 14 18 19 20 23 24 27 32 34 32 34 34 36 38 39 37 36 38 41 43 42 42 44 52 62 59 58 55 54 51 50 54 54 54 57 56 52
6 5 5 3 7 14 17 20 17 18 25 31 34 36 36 35 34 37 42 46 45 42 42 44 43 44 47 47 48 47 48 56 66 68 62 63 61 59 59 61 60 58 55
14 13 10 10 14 18 19 23 22 24 32 42 45 43 41 39 40 41 44 43 43 45 45 45 47 44 45 50 54 58 55 53 55 63 64 69 67 64 63 62 63 62 58
21 18 18 19 20 25 25 29 34 38 43 49 50 49 49 48 48 46 45 45 45 49 52 47 51 55 56 52 58 63 64 63 54 52 60 60 64 63 67 66 67 65 61
25 23 23 24 25 30 31 34 38 44 49 54 55 55 53 53 54 53 52 51 51 50 48 49 47 52 56 53 58 56 49 56 42 15 23 31 53 64 64 59 70 69 63
25 24 25 25 29 33 34 38 42 44 52 59 61 62 60 60 61 60 60 58 56 51 52 48 50 52 57 54 52 50 39 25 50 64 57 42 36 31 45 62 60 69 70
28 31 30 29 33 37 38 44 45 51 58 63 65 68 67 67 68 67 66 65 64 61 62 54 55 59 60 60 50 56 60 64 69 68 64 66 55 53 45 37 45 64 73
36 36 31 31 37 36 44 46 47 49 58 62 65 69 71 74 74 74 72 69 66 60 55 58 61 57 53 63 61 54 59 70 70 71 68 63 64 66 61 51 48 37 52
40 36 34 38 37 42 44 41 44 56 60 63 67 73 78 79 79 77 75 71 67 63 62 61 60 64 67 68 71 72 69 61 70 68 70 73 70 70 65 60 56 50 53
Wind_Direction_850mb
229 169 158 161 154 123 99 103 83 66 53 53 65 80 96 100 81 80 79 72 71 79 90 82 85 88 96 103 106 99 95 87 81 74 65 57 59 63 66 64 62 62 61
205 159 157 163 158 117 126 73 58 66 59 57 71 87 91 101 97 85 79 81 75 81 78 87 100 88 98 105 107 105 97 85 82 74 62 51 49 56 62 60 55 51 48
99 131 145 150 151 155 198 191 69 74 80 65 60 73 86 91 92 101 87 90 92 93 89 98 104 102 95 105 115 112 100 81 78 69 58 42 42 51 60 54 51 49 46
84 88 82 109 151 166 217 151 68 103 79 58 50 56 61 77 83 84 110 113 97 113 115 110 112 109 106 110 125 123 105 86 70 62 28 23 26 37 49 54 57 54 54
53 33 15 24 354 296 344 42 28 36 51 47 43 45 44 42 43 42 55 77 67 129 146 142 140 139 117 121 140 134 115 102 81 64 28 8 23 8 28 38 52 53 54
50 48 57 49 31 9 6 18 19 34 34 43 41 40 38 35 32 31 31 27 17 25 175 189 184 174 159 141 157 158 150 118 92 85 221 340 3 360 359 29 51 58 63
62 67 72 69 53 39 31 34 29 25 61 32 30 31 33 30 26 22 20 19 17 15 351 260 238 222 208 177 170 181 178 173 137 244 264 323 311 297 297 305 342 35 72
74 84 91 83 79 74 84 76 56 52 55 42 32 32 23 26 23 14 12 9 10 7 3 339 293 259 235 212 192 192 198 199 216 213 261 301 317 323 329 281 285 301 138
136 234 163 30 33 55 75 57 50 61 49 58 74 62 43 35 51 36 24 20 6 352 344 340 333 299 257 237 219 206 209 216 240 242 232 279 297 307 326 306 268 225 187
141 150 179 145 77 32 338 331 20 44 43 60 52 37 33 53 43 40 28 13 349 341 334 325 322 317 293 262 247 233 218 219 224 245 243 272 281 292 301 307 271 210 200
125 136 159 150 122 154 191 222 250 330 325 329 340 349 326 341 322 335 22 23 14 5 358 340 320 304 294 282 266 255 243 239 223 230 243 255 270 269 275 295 273 249 212
99 113 112 139 167 164 182 206 256 283 299 311 320 330 329 331 331 308 304 320 321 327 344 346 341 313 300 287 275 265 256 247 242 231 233 250 259 263 271 284 279 259 241
89 82 79 105 130 159 176 205 261 273 276 285 286 292 296 295 294 292 299 297 293 289 294 304 312 311 299 295 291 281 271 268 259 245 239 248 256 264 273 283 274 267 251
137 88 74 56 42 69 76 61 54 338 322 314 290 303 288 283 283 277 281 278 274 287 279 280 290 293 291 285 281 286 285 280 265 255 252 257 258 265 267 278 280 264 255
164 143 93 58 67 75 75 69 63 51 42 32 7 348 341 327 310 285 285 290 280 280 278 275 276 275 280 283 284 278 274 282 284 261 253 255 260 262 264 274 278 276 261
156 154 122 82 71 58 55 46 34 22 16 0 355 353 345 336 328 322 318 314 308 300 289 280 273 268 266 268 270 271 271 267 262 261 255 259 256 257 262 265 277 279 270
159 165 169 131 82 36 20 11 5 356 349 346 345 342 338 332 330 328 324 319 314 307 296 290 287 282 273 271 266 261 261 263 263 257 255 260 260 258 255 261 269 277 274
163 171 155 86 39 24 15 4 355 352 354 353 346 338 338 333 328 326 326 326 325 321 315 307 301 294 288 284 279 266 256 256 257 260 258 256 260 260 257 257 264 273 274
181 245 266 327 3 4 2 359 355 355 352 348 343 338 335 329 325 322 321 321 321 321 319 316 311 311 305 300 293 284 277 266 259 254 254 256 255 256 260 260 262 267 270
222 242 270 307 336 343 344 353 355 348 346 347 343 339 336 329 326 319 317 315 314 313 314 318 312 311 308 308 305 300 292 281 273 261 258 254 255 253 254 258 259 261 264
222 245 274 297 313 323 325 335 340 343 343 340 338 336 334 332 331 325 320 314 311 309 307 307 310 307 304 308 308 306 301 295 284 272 265 261 256 253 252 249 254 259 260
222 237 268 289 299 310 315 325 331 334 333 334 336 334 333 331 330 327 324 320 315 312 300 295 297 299 299 302 304 306 312 305 307 259 257 268 258 254 251 254 250 253 258
226 238 262 266 284 303 309 312 316 322 325 331 331 331 330 328 325 322 320 317 314 307 304 304 304 292 296 292 291 286 290 280 297 292 286 273 270 274 259 254 250 247 254
223 234 249 266 287 300 305 307 315 323 324 325 327 327 325 323 321 317 315 311 306 301 299 291 290 289 294 296 289 283 276 278 283 289 289 288 277 276 271 269 263 250 245
225 235 249 271 289 294 302 306 315 313 315 317 319 320 319 318 316 314 312 310 307 306 298 285 286 284 285 288 287 290 282 277 275 276 283 287 284 281 282 278 272 272 257
223 238 260 281 288 298 305 311 307 309 313 313 315 315 316 315 315 313 312 309 307 303 299 296 290 281 279 281 282 283 281 282 273 270 272 279 282 283 278 277 279 270 263